Regional Weather Roundup
Issued by NWS

Home | Current Version | Previous Version | Graphics & Text | Print | Product List | Glossary On
Versions: 1 2 3 4 5 6 7 8 9 10 11 12 13 14 15 16 17 18 19 20 21 22 23 24 25 26 27 28 29 30 31 32 33 34 35 36 37 38 39 40 41 42 43 44 45 46 47 48 49 50
000
ASUS43 KLSX 240259
RWRMO

WEATHER SUMMARY FOR MISSOURI
NATIONAL WEATHER SERVICE SPRINGFIELD MO
1000 PM CDT WED JUL 23 2014

NOTE: "FAIR" INDICATES FEW OR NO CLOUDS BELOW 12,000 FEET WITH NO
       SIGNIFICANT WEATHER AND/OR OBSTRUCTIONS TO VISIBILITY.
       CURRENT SKY AND/OR WEATHER CONDITIONS ARE NOT AVAILABLE FOR
       CHILLICOTHE AND FARMINGTON.

MOZ001>031-035>038-043-044-053-054-240400-
...NORTHERN AND WESTERN MISSOURI...

CITY           SKY/WX    TMP DP  RH WIND       PRES   REMARKS
KANSAS CTY INT PTCLDY    75  64  68 NE7       30.14R
KANSAS C DTWN  CLEAR     78  63  59 NE9       30.11R
LEE`S SUMMIT   CLEAR     76  63  64 NE6       30.13R
ST JOSEPH      CLEAR     75  64  68 NE8       30.14R
CHILLICOTHE      N/A     73  60  63 NE5       30.15R
KIRKSVILLE     CLEAR     67  58  72 NE3       30.17R

$$
MOZ066>068-077>081-088>096-101>105-240400-
...SOUTHWEST MISSOURI...

CITY           SKY/WX    TMP DP  RH WIND       PRES   REMARKS
SPRINGFIELD    CLEAR     75  69  81 CALM      30.09S
JOPLIN         CLEAR     76  67  73 N5        30.09R

$$
MOZ032>034-039>042-045>050-055>058-069>072-240400-
...CENTRAL MISSOURI...

CITY           SKY/WX    TMP DP  RH WIND       PRES   REMARKS
COLUMBIA       CLEAR     71  62  73 NE9       30.12R
JEFFERSON CITY CLEAR     76  62  62 NE10      30.10R
ROLLA          CLOUDY    75  64  68 NE10      30.10R
SEDALIA        CLEAR     73  64  73 NE7       30.12R
OSAGE BEACH    CLEAR     75  63  64 NE7       30.10R

$$
MOZ051-052-059>065-240400-
...EAST CENTRAL MISSOURI...

CITY           SKY/WX    TMP DP  RH WIND       PRES   REMARKS
ST LOUIS INTL  PTCLDY    74  60  61 NE6       30.12R
SPIRIT OF STL  CLEAR     73  60  63 NE6       30.10R
ST CHARLES     CLEAR     69  61  75 NE5       30.11R

$$
MOZ072>076-082>087-097>100-106>115-240400-
...SOUTH CENTRAL AND SOUTHEAST MISSOURI...

CITY           SKY/WX    TMP DP  RH WIND       PRES   REMARKS
CAPE GIRARDEAU PTCLDY    76  70  82 N5        30.05R
FARMINGTON     CLEAR     73  64  73 NE7       30.11S
POPLAR BLUFF   CLOUDY    74  70  87 NW5       30.04S
WEST PLAINS    PTCLDY    70  67  90 CALM      30.10S

$$


USA.gov is the U.S. government's official web portal to all federal, state and local government web resources and services.